Location: Unspecified
(41.1850°N, 73.2650°W)
Time: 17:42:40
(UTC+00:00)

Meteor 2-20 - Pass Details

Date: 14 December 2025
Orbit: 937 x 959 km, 82.5° (Epoch: 15 January)

Event Time Altitude Azimuth Distance (km) Brightness Sun altitude
Rises 22:29:34 0° 184° (S) 3,624 7.8 -11.8°
Reaches altitude 10° 22:32:03 10° 184° (S) 2,681 7.1 -12.2°
Maximum altitude 22:38:12 85° 96° (E) 965 4.4 -13.3°
Drops below altitude 10° 22:44:22 10° 9° (N) 2,689 6.5 -14.4°
Sets 22:46:52 0° 9° (N) 3,636 7.2 -14.9°
